Orbital Elements
Epoch 2014 May 23.0 TT = JDT 2456800.5
T 2014 May 21.69260 TT MPCW
q 1.9078077 (2000.0) P Q
n 0.11972817 Peri. 221.12910 +0.77154589 -0.63616722
a 4.0769792 Node 178.36943 +0.60684552 +0.73461819
e 0.5320536 Incl. 5.77732 +0.19093312 +0.23585457
P 8.23
From 210 observations 1989 Oct. 29-2014 Nov. 29, mean residual 0".7.
|